Location: Unspecified
(54.1780°N, 0.0000°E)
Time: 21:17:57
(UTC+00:00)

Transit 2A - Pass Details

Date: 18 June 2019
Orbit: 600 x 958 km, 66.7° (Epoch: 21 October)

Event Time Altitude Azimuth Distance (km) Brightness Sun altitude
Rises 04:26:25 0° 270° (W) 3,638 9.0 6.1°
Reaches altitude 10° 04:29:22 10° 281° (W) 2,680 8.4 6.5°
Maximum altitude 04:34:49 30° 341° (NNW) 1,609 7.9 7.2°
Drops below altitude 10° 04:40:01 10° 41° (NE) 2,551 10.4 7.8°
Sets 04:42:46 0° 53° (NE) 3,436 11.6 8.2°
